| time (UTC) | temp F | wind direction | speed knots | gust knots | rain 1hr in | rain 24hr in | rain mn in | humidity % | barometer mb |
| 20260505171456 | 58 | 209 | 3.5 | 8.7 | 0.00 | 0.00 | 0.00 | 41 | 1005.3 |
| 20260505170957 | 58 | 229 | 4.3 | 8.7 | 0.00 | 0.00 | 0.00 | 35 | 1005.4 |
| 20260505170457 | 58 | 188 | 2.6 | 10.4 | 0.00 | 0.00 | 0.00 | 38 | 1005.3 |
| 20260505165458 | 58 | 293 | 4.3 | 7.8 | 0.00 | 0.00 | 0.00 | 39 | 1005.4 |
| 20260505164958 | 57 | 317 | 5.2 | 7.8 | 0.00 | 0.00 | 0.00 | 37 | 1005.3 |
| 20260505164458 | 56 | 291 | 2.6 | 9.6 | 0.00 | 0.00 | 0.00 | 39 | 1005.2 |
| 20260505163958 | 57 | 255 | 4.3 | 13.0 | 0.00 | 0.00 | 0.00 | 39 | 1005.2 |
| 20260505163459 | 57 | 310 | 3.5 | 13.0 | 0.00 | 0.00 | 0.00 | 41 | 1005.4 |
| 20260505162958 | 57 | 271 | 5.2 | 11.3 | 0.00 | 0.00 | 0.00 | 39 | 1005.4 |
| 20260505151959 | 54 | 271 | 2.6 | 9.6 | 0.00 | 0.00 | 0.00 | 53 | 1005.9 |
| 20260505151457 | 53 | 224 | 3.5 | 7.8 | 0.00 | 0.00 | 0.00 | 54 | 1006.1 |
| 20260505150958 | 52 | 297 | 2.6 | 7.8 | 0.00 | 0.00 | 0.00 | 53 | 1006.1 |
| 20260505150458 | 52 | 262 | 2.6 | 7.8 | 0.00 | 0.00 | 0.00 | 55 | 1006.1 |
| 20260505140458 | 50 | 301 | 4.3 | 9.6 | 0.00 | 0.00 | 0.00 | 61 | 1005.3 |
| 20260505123457 | 51 | 311 | 2.6 | 6.1 | 0.00 | 0.00 | 0.00 | 74 | 1003.7 |
| 20260505122958 | 51 | 237 | 2.6 | 3.5 | 0.00 | 0.00 | 0.00 | 76 | 1003.6 |
| 20260505122457 | 50 | 289 | 0.0 | 2.6 | 0.00 | 0.00 | 0.00 | 77 | 1003.5 |
| 20260505121958 | 50 | 332 | 0.9 | 3.5 | 0.00 | 0.00 | 0.00 | 76 | 1003.4 |
| 20260505121458 | 50 | 337 | 0.9 | 3.5 | 0.00 | 0.00 | 0.00 | 76 | 1003.4 |
| 20260505120959 | 50 | 276 | 1.7 | 3.5 | 0.00 | 0.00 | 0.00 | 77 | 1003.3 |
| 20260505120458 | 49 | 293 | 0.0 | 2.6 | 0.00 | 0.00 | 0.00 | 78 | 1003.3 |
| 20260505112458 | 48 | 357 | 0.9 | 1.7 | 0.00 | 0.00 | 0.00 | 79 | 1002.9 |
| 20260505111958 | 48 | 266 | 0.0 | 3.5 | 0.00 | 0.00 | 0.00 | 79 | 1002.9 |
| 20260505111458 | 48 | 325 | 0.9 | 2.6 | 0.00 | 0.00 | 0.00 | 78 | 1002.7 |
| 20260505110958 | 48 | 316 | 0.0 | 2.6 | 0.00 | 0.00 | 0.00 | 77 | 1002.6 |
| 20260505110457 | 48 | 305 | 0.9 | 3.5 | 0.00 | 0.00 | 0.00 | 77 | 1002.6 |
| 20260505101958 | 50 | 271 | 0.0 | 4.3 | 0.00 | 0.00 | 0.00 | 66 | 1001.7 |
| 20260505101458 | 50 | 282 | 1.7 | 4.3 | 0.00 | 0.00 | 0.00 | 66 | 1001.5 |
| 20260505100958 | 50 | 294 | 0.9 | 2.6 | 0.00 | 0.00 | 0.00 | 65 | 1001.7 |
| 20260505100458 | 51 | 323 | 0.9 | 2.6 | 0.00 | 0.00 | 0.00 | 65 | 1001.5 |
| 20260505100000 | 51 | 298 | 0.9 | 2.6 | 0.00 | 0.00 | 0.00 | 64 | 1001.2 |
| 20260505095458 | 51 | 328 | 0.9 | 3.5 | 0.00 | 0.00 | 0.00 | 64 | 1001.0 |
| 20260505094958 | 51 | 324 | 0.9 | 3.5 | 0.00 | 0.00 | 0.00 | 64 | 1000.9 |
| 20260505094457 | 51 | 315 | 0.9 | 3.5 | 0.00 | 0.00 | 0.00 | 64 | 1000.7 |
| 20260505093958 | 51 | 285 | 0.9 | 4.3 | 0.00 | 0.00 | 0.00 | 64 | 1001.0 |
| 20260505093457 | 51 | 311 | 1.7 | 4.3 | 0.00 | 0.00 | 0.00 | 64 | 1001.0 |
| 20260505092959 | 51 | 276 | 1.7 | 4.3 | 0.00 | 0.00 | 0.00 | 66 | 1000.8 |
| 20260505092458 | 52 | 248 | 0.9 | 3.5 | 0.00 | 0.00 | 0.00 | 67 | 1000.7 |
| 20260505081458 | 53 | 238 | 0.0 | 4.3 | 0.00 | 0.00 | 0.00 | 68 | 999.4 |
| 20260505080958 | 53 | 266 | 0.9 | 4.3 | 0.00 | 0.00 | 0.00 | 68 | 999.4 |
| 20260505080458 | 53 | 292 | 0.0 | 1.7 | 0.00 | 0.00 | 0.00 | 68 | 999.3 |
| 20260505075959 | 54 | 253 | 0.0 | 2.6 | 0.00 | 0.00 | 0.00 | 68 | 999.2 |
| 20260505075457 | 54 | 276 | 0.9 | 4.3 | 0.00 | 0.00 | 0.00 | 68 | 999.3 |
| 20260505074957 | 54 | 266 | 0.0 | 3.5 | 0.00 | 0.00 | 0.00 | 68 | 999.0 |
| 20260505074458 | 54 | 295 | 0.0 | 4.3 | 0.00 | 0.00 | 0.00 | 69 | 999.1 |
| 20260505073957 | 54 | 307 | 0.9 | 4.3 | 0.00 | 0.00 | 0.00 | 69 | 999.1 |
| 20260505073458 | 54 | 252 | 0.9 | 4.3 | 0.00 | 0.00 | 0.00 | 69 | 998.8 |
| 20260505072957 | 55 | 290 | 0.9 | 3.5 | 0.00 | 0.00 | 0.00 | 71 | 998.9 |
| 20260505072457 | 55 | 248 | 0.9 | 4.3 | 0.00 | 0.00 | 0.00 | 71 | 999.0 |
| 20260505071958 | 55 | 222 | 0.9 | 7.8 | 0.00 | 0.00 | 0.00 | 71 | 999.2 |
| 20260505071457 | 55 | 285 | 0.9 | 7.8 | 0.00 | 0.00 | 0.00 | 71 | 999.0 |
| 20260505070957 | 55 | 250 | 1.7 | 4.3 | 0.00 | 0.00 | 0.00 | 71 | 999.1 |
| 20260505070457 | 55 | 276 | 1.7 | 4.3 | 0.00 | 0.00 | 0.00 | 70 | 998.9 |
| 20260505065957 | 56 | 239 | 0.9 | 5.2 | 0.00 | 0.00 | 0.00 | 70 | 999.1 |
| 20260505065458 | 56 | 222 | 1.7 | 5.2 | 0.00 | 0.00 | 0.00 | 69 | 998.9 |
| 20260505064957 | 56 | 276 | 0.0 | 1.7 | 0.00 | 0.00 | 0.00 | 69 | 998.7 |
| 20260505064457 | 56 | 304 | 0.9 | 2.6 | 0.00 | 0.00 | 0.00 | 70 | 998.7 |
| 20260505063957 | 57 | 271 | 0.9 | 2.6 | 0.00 | 0.00 | 0.00 | 69 | 998.8 |
| 20260505055959 | 58 | 261 | 0.9 | 2.6 | 0.00 | 0.00 | 0.00 | 73 | 998.5 |
| 20260505055457 | 58 | 297 | 0.9 | 2.6 | 0.00 | 0.00 | 0.00 | 73 | 998.6 |
| 20260505054958 | 59 | 295 | 0.9 | 4.3 | 0.00 | 0.00 | 0.00 | 73 | 998.6 |
| 20260505054458 | 59 | 233 | 2.6 | 4.3 | 0.00 | 0.00 | 0.00 | 72 | 998.5 |
| 20260505053958 | 59 | 213 | 1.7 | 5.2 | 0.00 | 0.00 | 0.00 | 72 | 998.7 |
| 20260505053500 | 59 | 219 | 0.9 | 7.0 | 0.00 | 0.00 | 0.00 | 71 | 998.4 |
| 20260505052958 | 60 | 242 | 2.6 | 9.6 | 0.00 | 0.00 | 0.00 | 71 | 998.5 |
| 20260505052458 | 60 | 326 | 3.5 | 9.6 | 0.00 | 0.00 | 0.00 | 71 | 998.3 |
| 20260505051957 | 60 | 271 | 0.9 | 9.6 | 0.00 | 0.00 | 0.00 | 70 | 998.2 |
| 20260505051457 | 60 | 222 | 1.7 | 9.6 | 0.00 | 0.00 | 0.00 | 70 | 998.3 |
| 20260505050957 | 61 | 276 | 0.9 | 7.0 | 0.00 | 0.00 | 0.00 | 70 | 998.1 |
| 20260505050456 | 61 | 226 | 0.9 | 7.0 | 0.00 | 0.00 | 0.00 | 69 | 997.8 |
| 20260505041456 | 63 | 255 | 3.5 | 11.3 | 0.00 | 0.00 | 0.00 | 70 | 997.8 |
| 20260505040956 | 63 | 230 | 4.3 | 11.3 | 0.00 | 0.00 | 0.00 | 70 | 997.9 |
| 20260505040457 | 63 | 226 | 3.5 | 7.8 | 0.00 | 0.00 | 0.00 | 70 | 998.0 |
| 20260505040004 | 63 | 271 | 2.6 | 11.3 | 0.00 | 0.00 | 0.00 | 70 | 998.0 |
| 20260505035457 | 63 | 284 | 3.5 | 11.3 | 0.00 | 0.00 | 0.00 | 70 | 997.9 |
| 20260505034958 | 63 | 229 | 2.6 | 11.3 | 0.00 | 0.00 | 0.00 | 69 | 997.9 |
| 20260505034458 | 64 | 257 | 2.6 | 8.7 | 0.00 | 0.00 | 0.00 | 69 | 997.9 |
| 20260505033958 | 64 | 244 | 2.6 | 10.4 | 0.00 | 0.00 | 0.00 | 68 | 997.6 |
| 20260505033458 | 64 | 199 | 3.5 | 10.4 | 0.00 | 0.00 | 0.00 | 68 | 997.4 |
| 20260505032958 | 64 | 309 | 2.6 | 7.0 | 0.00 | 0.00 | 0.00 | 67 | 997.3 |
| 20260505032458 | 64 | 235 | 2.6 | 9.6 | 0.00 | 0.00 | 0.00 | 67 | 997.0 |
| 20260505031958 | 65 | 217 | 2.6 | 10.4 | 0.00 | 0.00 | 0.00 | 66 | 996.8 |
| 20260505031459 | 65 | 276 | 1.7 | 12.2 | 0.00 | 0.00 | 0.00 | 66 | 996.8 |
| 20260505030958 | 65 | 217 | 3.5 | 16.5 | 0.00 | 0.00 | 0.00 | 67 | 996.5 |
| 20260505030458 | 66 | 230 | 4.3 | 16.5 | 0.00 | 0.00 | 0.00 | 66 | 996.8 |
| 20260505030000 | 66 | 226 | 2.6 | 8.7 | 0.00 | 0.00 | 0.00 | 64 | 996.8 |
| 20260505025458 | 66 | 303 | 3.5 | 7.8 | 0.00 | 0.00 | 0.00 | 63 | 997.4 |
| 20260505024958 | 66 | 234 | 2.6 | 9.6 | 0.00 | 0.00 | 0.00 | 62 | 996.8 |
| 20260505024458 | 66 | 200 | 3.5 | 12.2 | 0.00 | 0.00 | 0.00 | 61 | 996.4 |
| 20260505023958 | 67 | 207 | 3.5 | 12.2 | 0.00 | 0.00 | 0.00 | 61 | 996.2 |
| 20260505023458 | 67 | 227 | 5.2 | 14.8 | 0.00 | 0.00 | 0.00 | 61 | 996.1 |
| 20260505022958 | 67 | 258 | 6.1 | 14.8 | 0.00 | 0.00 | 0.00 | 62 | 996.2 |
| 20260505022458 | 68 | 271 | 7.0 | 13.0 | 0.00 | 0.00 | 0.00 | 64 | 996.2 |
| 20260505021959 | 68 | 259 | 5.2 | 12.2 | 0.00 | 0.00 | 0.00 | 65 | 996.0 |
| 20260505021458 | 69 | 243 | 4.3 | 12.2 | 0.00 | 0.00 | 0.00 | 64 | 996.1 |
| 20260505020958 | 69 | 194 | 2.6 | 7.8 | 0.00 | 0.00 | 0.00 | 63 | 996.3 |
| 20260505020459 | 70 | 305 | 2.6 | 11.3 | 0.00 | 0.00 | 0.00 | 63 | 996.6 |
| 20260505015958 | 70 | 216 | 6.1 | 11.3 | 0.00 | 0.00 | 0.00 | 60 | 996.9 |
| 20260505015458 | 70 | 223 | 4.3 | 10.4 | 0.00 | 0.00 | 0.00 | 58 | 996.5 |
| 20260505014958 | 70 | 342 | 5.2 | 13.9 | 0.00 | 0.00 | 0.00 | 57 | 996.0 |
| 20260505014458 | 70 | 214 | 6.1 | 13.0 | 0.00 | 0.00 | 0.00 | 56 | 995.7 |
| 20260505013959 | 71 | 195 | 7.0 | 14.8 | 0.00 | 0.00 | 0.00 | 55 | 995.7 |
| 20260505013459 | 71 | 244 | 5.2 | 14.8 | 0.00 | 0.00 | 0.00 | 53 | 995.7 |
| 20260505012958 | 71 | 169 | 3.5 | 8.7 | 0.00 | 0.00 | 0.00 | 51 | 995.6 |
| 20260505012458 | 71 | 215 | 2.6 | 13.0 | 0.00 | 0.00 | 0.00 | 50 | 995.6 |
| 20260505011958 | 71 | 192 | 5.2 | 13.0 | 0.00 | 0.00 | 0.00 | 49 | 995.5 |
| 20260505011458 | 71 | 201 | 3.5 | 10.4 | 0.00 | 0.00 | 0.00 | 47 | 995.3 |
| 20260505010958 | 71 | 172 | 4.3 | 9.6 | 0.00 | 0.00 | 0.00 | 45 | 995.5 |
| 20260505010457 | 71 | 225 | 4.3 | 13.9 | 0.00 | 0.00 | 0.00 | 44 | 995.5 |
| 20260505005958 | 71 | 276 | 3.5 | 10.4 | 0.00 | 0.00 | 0.00 | 43 | 995.4 |
| 20260505005459 | 71 | 228 | 3.5 | 13.9 | 0.00 | 0.00 | 0.00 | 43 | 995.5 |
| 20260505004957 | 71 | 266 | 2.6 | 13.9 | 0.00 | 0.00 | 0.00 | 42 | 995.5 |
| 20260505004458 | 71 | 216 | 6.1 | 11.3 | 0.00 | 0.00 | 0.00 | 41 | 995.3 |
| 20260505003958 | 72 | 193 | 1.7 | 8.7 | 0.00 | 0.00 | 0.00 | 41 | 995.3 |
| 20260505003457 | 72 | 236 | 4.3 | 8.7 | 0.00 | 0.00 | 0.00 | 41 | 995.2 |
| 20260505002958 | 72 | 184 | 3.5 | 7.8 | 0.00 | 0.00 | 0.00 | 40 | 995.1 |
| 20260505002458 | 72 | 212 | 2.6 | 7.8 | 0.00 | 0.00 | 0.00 | 40 | 995.0 |
| 20260505001958 | 72 | 223 | 3.5 | 7.8 | 0.00 | 0.00 | 0.00 | 40 | 994.9 |
| 20260505001458 | 73 | 226 | 4.3 | 9.6 | 0.00 | 0.00 | 0.00 | 39 | 994.9 |
| 20260505000958 | 73 | 240 | 4.3 | 9.6 | 0.00 | 0.00 | 0.00 | 39 | 994.9 |
| 20260505000458 | 73 | 305 | 2.6 | 7.0 | 0.00 | 0.00 | 0.00 | 40 | 994.9 |
| 20260505000000 | 73 | 333 | 2.6 | 9.6 | 0.00 | 0.00 | 0.00 | 40 | 994.9 |
| 20260504221959 | 74 | 337 | 5.2 | 13.0 | 0.00 | 0.00 | 0.00 | 37 | 996.9 |
| 20260504221458 | 75 | 235 | 5.2 | 14.8 | 0.00 | 0.00 | 0.00 | 38 | 997.0 |
| 20260504220958 | 75 | 266 | 5.2 | 14.8 | 0.00 | 0.00 | 0.00 | 37 | 996.9 |
| 20260504220458 | 74 | 212 | 3.5 | 12.2 | 0.00 | 0.00 | 0.00 | 37 | 997.0 |
| 20260504220000 | 74 | 322 | 2.6 | 13.0 | 0.00 | 0.00 | 0.00 | 38 | 997.0 |
| 20260504215459 | 74 | 236 | 4.3 | 17.4 | 0.00 | 0.00 | 0.00 | 38 | 997.0 |
| 20260504214959 | 74 | 232 | 7.8 | 17.4 | 0.00 | 0.00 | 0.00 | 37 | 997.1 |
| 20260504214459 | 74 | 209 | 7.0 | 15.6 | 0.00 | 0.00 | 0.00 | 36 | 997.1 |
| 20260504213959 | 74 | 280 | 3.5 | 15.6 | 0.00 | 0.00 | 0.00 | 39 | 997.2 |
| 20260504213459 | 74 | 225 | 5.2 | 20.9 | 0.00 | 0.00 | 0.00 | 37 | 997.3 |
| 20260504212959 | 74 | 295 | 7.8 | 20.9 | 0.00 | 0.00 | 0.00 | 36 | 997.4 |
| 20260504212459 | 74 | 309 | 5.2 | 15.6 | 0.00 | 0.00 | 0.00 | 36 | 997.4 |
| 20260504211959 | 75 | 199 | 1.7 | 10.4 | 0.00 | 0.00 | 0.00 | 36 | 997.4 |
| 20260504211459 | 75 | 226 | 4.3 | 16.5 | 0.00 | 0.00 | 0.00 | 35 | 997.4 |
| 20260504210959 | 74 | 221 | 6.1 | 16.5 | 0.00 | 0.00 | 0.00 | 35 | 997.6 |
| 20260504210459 | 74 | 195 | 6.1 | 12.2 | 0.00 | 0.00 | 0.00 | 37 | 997.6 |
| 20260504205958 | 74 | 236 | 6.1 | 13.9 | 0.00 | 0.00 | 0.00 | 34 | 997.6 |
| 20260504205459 | 74 | 281 | 7.8 | 14.8 | 0.00 | 0.00 | 0.00 | 34 | 997.5 |
| 20260504204958 | 74 | 214 | 7.0 | 15.6 | 0.00 | 0.00 | 0.00 | 33 | 997.7 |
| 20260504204457 | 73 | 331 | 3.5 | 15.6 | 0.00 | 0.00 | 0.00 | 33 | 998.0 |
| 20260504203958 | 73 | 243 | 7.8 | 17.4 | 0.00 | 0.00 | 0.00 | 32 | 998.0 |
| 20260504203458 | 74 | 240 | 9.6 | 17.4 | 0.00 | 0.00 | 0.00 | 30 | 998.0 |
| 20260504202958 | 74 | 328 | 4.3 | 13.0 | 0.00 | 0.00 | 0.00 | 32 | 997.9 |
| 20260504202458 | 74 | 271 | 3.5 | 16.5 | 0.00 | 0.00 | 0.00 | 35 | 997.9 |
| 20260504201958 | 75 | 234 | 6.1 | 16.5 | 0.00 | 0.00 | 0.00 | 34 | 998.0 |
| 20260504201458 | 75 | 219 | 4.3 | 11.3 | 0.00 | 0.00 | 0.00 | 33 | 998.0 |
| 20260504200958 | 75 | 224 | 5.2 | 16.5 | 0.00 | 0.00 | 0.00 | 35 | 998.1 |
| 20260504200459 | 75 | 271 | 7.0 | 16.5 | 0.00 | 0.00 | 0.00 | 34 | 998.2 |
| 20260504195958 | 75 | 221 | 6.1 | 14.8 | 0.00 | 0.00 | 0.00 | 32 | 998.4 |
| 20260504195458 | 75 | 259 | 5.2 | 14.8 | 0.00 | 0.00 | 0.00 | 32 | 998.3 |
| 20260504194959 | 75 | 235 | 3.5 | 16.5 | 0.00 | 0.00 | 0.00 | 32 | 998.3 |
| 20260504194458 | 75 | 313 | 7.8 | 16.5 | 0.00 | 0.00 | 0.00 | 29 | 998.4 |
| 20260504193958 | 75 | 313 | 6.1 | 14.8 | 0.00 | 0.00 | 0.00 | 32 | 998.5 |
| 20260504193458 | 74 | 337 | 7.0 | 13.9 | 0.00 | 0.00 | 0.00 | 28 | 998.5 |
| 20260504192958 | 75 | 223 | 6.1 | 16.5 | 0.00 | 0.00 | 0.00 | 30 | 998.5 |
| 20260504192458 | 75 | 291 | 6.1 | 16.5 | 0.00 | 0.00 | 0.00 | 30 | 998.4 |
| 20260504191958 | 76 | 280 | 6.1 | 17.4 | 0.00 | 0.00 | 0.00 | 27 | 998.5 |
| 20260504191457 | 75 | 211 | 9.6 | 19.1 | 0.00 | 0.00 | 0.00 | 28 | 998.5 |
| 20260504190958 | 75 | 317 | 7.8 | 19.1 | 0.00 | 0.00 | 0.00 | 27 | 998.4 |
| 20260504190458 | 75 | 188 | 8.7 | 18.2 | 0.00 | 0.00 | 0.00 | 30 | 998.4 |
| 20260504185958 | 75 | 222 | 6.1 | 18.2 | 0.00 | 0.00 | 0.00 | 28 | 998.3 |
| 20260504185458 | 76 | 213 | 7.8 | 18.2 | 0.00 | 0.00 | 0.00 | 30 | 998.3 |
| 20260504184957 | 75 | 343 | 8.7 | 16.5 | 0.00 | 0.00 | 0.00 | 27 | 998.4 |
| 20260504184458 | 75 | 220 | 8.7 | 14.8 | 0.00 | 0.00 | 0.00 | 28 | 998.4 |
| 20260504183958 | 76 | 232 | 7.8 | 14.8 | 0.00 | 0.00 | 0.00 | 29 | 998.4 |
| 20260504180457 | 75 | 313 | 8.7 | 18.2 | 0.00 | 0.00 | 0.00 | 27 | 998.3 |
| 20260504175958 | 75 | 280 | 7.0 | 13.9 | 0.00 | 0.00 | 0.00 | 28 | 998.5 |
| 20260504175458 | 76 | 288 | 5.2 | 13.0 | 0.00 | 0.00 | 0.00 | 27 | 998.5 |
| 20260504174958 | 76 | 206 | 6.1 | 15.6 | 0.00 | 0.00 | 0.00 | 27 | 998.7 |
| 20260504174457 | 76 | 303 | 6.1 | 15.6 | 0.00 | 0.00 | 0.00 | 30 | 998.9 |
| 20260504173958 | 76 | 299 | 6.1 | 13.0 | 0.00 | 0.00 | 0.00 | 30 | 998.7 |
| 20260504173457 | 75 | 234 | 7.0 | 11.3 | 0.00 | 0.00 | 0.00 | 31 | 998.8 |
| 20260504172958 | 76 | 240 | 2.6 | 18.2 | 0.00 | 0.00 | 0.00 | 33 | 998.9 |
| 20260504172458 | 75 | 320 | 2.6 | 18.2 | 0.00 | 0.00 | 0.00 | 32 | 998.9 |
| 20260504171958 | 75 | 196 | 4.3 | 13.0 | 0.00 | 0.00 | 0.00 | 34 | 999.0 |